Location: Kosice
(0.0000°N, 21.2500°E)
Time: 05:56:22
(UTC+01:00)

OAO 3 Rocket - Pass Details

Date: 24 January 2021
Orbit: 629 x 682 km, 35.0° (Epoch: 04 March)

Event Time Altitude Azimuth Distance (km) Brightness Sun altitude
Rises 18:26:19 0° 248° (WSW) 3,009 9.0 -9.2°
Reaches altitude 10° 18:28:50 10° 256° (WSW) 2,100 7.4 -9.8°
Maximum altitude 18:33:23 37° 323° (NW) 1,040 4.4 -10.9°
Drops below altitude 10° 18:37:56 10° 31° (NNE) 2,105 5.3 -12.0°
Enters shadow 18:38:06 - 31° (NNE) 2,160 5.4 -12.0°
